This demonstration page uses our WeatherBlox Daily Observations layout. Learn more.

Hourly Observations for April 14, 2018

Temp ( °F °C ) Dew Point ( °F °C ) Humidity (%) Winds ( mph kmh ) Pressure ( in mb ) Visibility ( mi km ) Precip ( " mm )
12:15 am 00:15 Cloudy with Snow 26 -3.3 25 -3.8 96 96 NNW 33 54 29.85 1011 0.5 0.80467 0 0
12:35 am 00:35 Cloudy with Snow 26 -3.3 25 -3.8 96 96 NNW 35 56 29.85 1011 0.75 1.207005 0 0
12:55 am 00:55 Windy with Snow Likely 26 -3.2 25 -4 94 94 NNW 30 48 29.85 1011 1 1.60934 0 0
1:15 am 01:15 Cloudy with Snow 26 -3.3 24 -4.2 94 94 NNW 36 57 29.85 1011 1 1.60934 0 0
1:35 am 01:35 Cloudy with Snow 26 -3.5 24 -4.3 94 94 NNW 36 57 29.88 1012 1 1.60934 0 0
1:55 am 01:55 Cloudy with Snow 25 -3.7 24 -4.2 96 96 NNW 33 54 29.88 1012 0.75 1.207005 0 0
2:15 am 02:15 Cloudy with Snow 25 -3.8 24 -4.2 97 97 NNW 31 50 29.88 1012 1 1.60934 0 0
2:35 am 02:35 Cloudy with Snow 25 -4 24 -4.3 98 98 NNW 31 50 29.88 1012 0.75 1.207005 0 0
2:55 am 02:55 Windy with Snow Likely 25 -4 24 -4.5 96 96 NNW 32 52 29.88 1012 1 1.60934 0 0
3:15 am 03:15 Cloudy with Snow 25 -4 24 -4.5 96 96 NNW 33 54 29.88 1012 0.75 1.207005 0 0
3:35 am 03:35 Cloudy with Snow 25 -4 24 -4.5 96 96 NNW 31 50 29.88 1012 0.75 1.207005 0 0
3:55 am 03:55 Cloudy with Heavy Snow 25 -4 24 -4.5 96 96 NNW 33 54 29.88 1012 0.5 0.80467 0 0
4:15 am 04:15 Cloudy with Heavy Snow 25 -4 24 -4.3 98 98 NNW 32 52 29.88 1012 0.25 0.402335 0 0
4:35 am 04:35 Cloudy with Snow 25 -4 24 -4.3 98 98 NNW 29 46 29.88 1012 0.5 0.80467 0 0
4:55 am 04:55 Cloudy with Heavy Snow 25 -4 24 -4.3 98 98 NNW 33 54 29.88 1012 0.5 0.80467 0 0
5:15 am 05:15 Cloudy with Heavy Snow 25 -4 24 -4.2 99 99 N 32 52 29.91 1013 0.5 0.80467 0 0
5:35 am 05:35 Cloudy with Heavy Snow 25 -4 24 -4.3 98 98 NNW 33 54 29.91 1013 0.5 0.80467 0.01 0.254
5:55 am 05:55 Cloudy with Heavy Snow 25 -4 24 -4.5 96 96 NNW 37 59 29.91 1013 0.5 0.80467 0.01 0.254
6:15 am 06:15 Cloudy with Heavy Snow 25 -4 24 -4.3 98 98 N 36 57 29.91 1013 0.25 0.402335 0 0
6:35 am 06:35 Cloudy with Snow 25 -4 24 -4.3 98 98 N 33 54 29.91 1013 0.5 0.80467 0 0
6:55 am 06:55 Cloudy with Snow 25 -4 24 -4.3 98 98 N 28 44 29.94 1014 0.5 0.80467 0 0
7:15 am 07:15 Cloudy 25 -4 24 -4.3 98 98 N 31 50 29.94 1014 N/A 0 0
7:35 am 07:35 Cloudy 25 -4 24 -4.2 99 99 N 30 48 29.94 1014 N/A 0 0
7:55 am 07:55 Windy with Snow Likely 25 -4 24 -4.5 96 96 N 30 48 29.94 1014 0.5 0.80467 0 0
8:15 am 08:15 Windy with Snow Likely 25 -4 24 -4.5 96 96 N 30 48 29.97 1015 0.5 0.80467 0 0
8:35 am 08:35 Windy with Snow Likely 25 -4 24 -4.6 96 96 N 32 52 29.97 1015 0.5 0.80467 0 0
8:55 am 08:55 Windy with Snow Likely 25 -4 24 -4.7 95 95 NNW 35 56 29.97 1015 0.75 1.207005 0 0
9:15 am 09:15 Windy with Snow Likely 25 -4 23 -4.8 94 94 N 32 52 30 1016 1 1.60934 0 0
9:35 am 09:35 Cloudy with Mist and Fog 25 -3.8 23 -4.8 93 93 N 29 46 30 1016 1.25 2.011675 0 0
9:55 am 09:55 Cloudy with Mist and Fog 25 -3.7 23 -4.8 92 92 N 31 50 30 1016 1.25 2.011675 0 0
10:15 am 10:15 Windy with Snow Likely 26 -3.5 24 -4.5 93 93 N 33 54 30.03 1017 1 1.60934 0 0
10:35 am 10:35 Cloudy with Mist and Fog 26 -3.2 24 -4.5 91 91 N 30 48 30.03 1017 2 3.21868 0 0
10:55 am 10:55 Cloudy with Mist and Fog 26 -3.2 24 -4.6 90 90 N 32 52 30.03 1017 2 3.21868 0 0
11:15 am 11:15 Windy with Snow Likely 27 -3 24 -4.3 91 91 N 30 48 30.06 1018 1.25 2.011675 0 0
11:35 am 11:35 Windy with Snow Likely 27 -3 24 -4.5 90 90 N 30 48 30.06 1018 1.5 2.41401 0 0
11:55 am 11:55 Cloudy with Mist and Fog 27 -2.8 24 -4.7 87 87 N 28 44 30.06 1018 4 6.43736 0 0
12:15 pm 12:15 Cloudy 27 -2.7 23 -5 84 84 N 29 46 30.09 1019 7 11.26538 0 0
12:35 pm 12:35 Cloudy 27 -2.6 23 -5.1 83 83 N 31 50 30.09 1019 7 11.26538 0 0
12:55 pm 12:55 Cloudy 28 -2.5 23 -5 83 83 N 33 54 30.09 1019 7 11.26538 0 0
1:15 pm 13:15 Cloudy with Haze 27 -2.8 22 -5.3 83 83 NNW 25 41 30.09 1019 5 8.0467 0 0
1:35 pm 13:35 Cloudy 27 -2.9 22 -5.4 83 83 N 25 41 30.09 1019 7 11.26538 0 0
1:55 pm 13:55 Windy with Snow Likely 27 -3 24 -4.7 88 88 NNW 26 43 30.12 1020 1 1.60934 0 0
2:15 pm 14:15 Windy with Snow Likely 27 -3 23 -5.1 86 86 NNW 29 46 30.12 1020 2.5 4.02335 0 0
2:35 pm 14:35 Windy with Snow Likely 27 -2.9 23 -5.1 85 85 NNW 32 52 30.12 1020 3 4.82802 0 0
2:55 pm 14:55 Windy with Snow Likely 27 -3 23 -5.1 86 86 NNW 28 44 30.12 1020 3 4.82802 0 0
3:15 pm 15:15 Cloudy 27 -2.6 22 -5.7 80 80 NNW 32 52 30.12 1020 10 16.0934 0 0
3:35 pm 15:35 Windy with Snow Likely 27 -2.7 23 -4.8 86 86 N 29 46 30.15 1021 3 4.82802 0 0
3:55 pm 15:55 Cloudy with Haze 27 -3 22 -5.3 84 84 NNW 26 43 30.15 1021 3 4.82802 0 0
4:15 pm 16:15 Cloudy with Mist and Fog 26 -3.3 22 -5.5 85 85 NNW 30 48 30.18 1022 3 4.82802 0 0
4:35 pm 16:35 Windy with Snow Likely 25 -3.8 23 -5 91 91 NNW 22 35 30.18 1022 0.5 0.80467 0 0
4:55 pm 16:55 Windy with Snow Likely 26 -3.5 23 -5.2 88 88 N 29 46 30.18 1022 1 1.60934 0 0
5:15 pm 17:15 Windy with Snow Likely 26 -3.2 22 -5.7 83 83 NNW 24 39 30.18 1022 3 4.82802 0 0
5:35 pm 17:35 Cloudy with Haze 27 -3 21 -6 80 80 NNW 31 50 30.21 1023 5 8.0467 0 0
5:55 pm 17:55 Cloudy with Haze 26 -3.1 21 -6 81 81 N 31 50 30.21 1023 4 6.43736 0 0
6:15 pm 18:15 Cloudy 26 -3.2 21 -6.1 81 81 N 26 43 30.21 1023 10 16.0934 0 0
6:35 pm 18:35 Cloudy 26 -3.3 20 -6.4 79 79 N 26 43 30.21 1023 10 16.0934 0 0
6:55 pm 18:55 Windy with Snow Likely 26 -3.5 21 -5.9 84 84 N 23 37 30.24 1024 3 4.82802 0 0
7:15 pm 19:15 Cloudy with Light Snow 26 -3.6 22 -5.5 87 87 N 18 30 30.24 1024 3 4.82802 0 0
7:35 pm 19:35 Windy with Snow Likely 25 -4 23 -5.1 92 92 N 22 35 30.24 1024 1.25 2.011675 0 0
7:55 pm 19:55 Windy with Snow Likely 25 -4.1 23 -5 94 94 N 20 31 30.24 1024 2 3.21868 0 0
8:15 pm 20:15 Windy with Snow Likely 25 -4.1 23 -4.9 94 94 N 22 35 30.24 1024 5 8.0467 0 0
8:35 pm 20:35 Cloudy 25 -4.1 22 -5.8 88 88 N 21 33 30.24 1024 7 11.26538 0 0
8:55 pm 20:55 Cloudy 25 -4.1 21 -6.1 86 86 N 17 28 30.24 1024 10 16.0934 0 0
9:15 pm 21:15 Cloudy 25 -4.1 21 -6.3 85 85 N 17 28 30.27 1025 10 16.0934 0 0
9:35 pm 21:35 Cloudy 25 -4.1 20 -6.5 84 84 N 21 33 30.27 1025 10 16.0934 0 0
9:55 pm 21:55 Cloudy 25 -4.1 20 -6.6 83 83 N 23 37 30.27 1025 10 16.0934 0 0
10:15 pm 22:15 Cloudy 24 -4.3 20 -6.6 84 84 N 22 35 30.27 1025 10 16.0934 0 0
10:35 pm 22:35 Cloudy 24 -4.3 20 -6.7 84 84 N 17 28 30.27 1025 10 16.0934 0 0
10:55 pm 22:55 Cloudy 24 -4.3 20 -6.7 84 84 N 18 30 30.27 1025 10 16.0934 0 0
11:15 pm 23:15 Cloudy 24 -4.3 20 -6.7 84 84 N 14 22 30.27 1025 10 16.0934 0 0
11:35 pm 23:35 Cloudy 24 -4.3 20 -6.8 83 83 N 16 26 30.27 1025 10 16.0934 0 0
11:55 pm 23:55 Cloudy 24 -4.3 19 -7 82 82 N 17 28 30.27 1025 10 16.0934 0 0

Powered by AerisWeather